Calhoun, IL

6:13 PM CDT on October 01, 2016 (GMT -0500)
Olney-Noble

Weather History for KOLY - April, 2013

Change the Weather History Date:

Monday, April 1, 2013

  Actual Average (KEVV) Record (KEVV)
Temperature  
Mean Temperature 42 °F 51 °F  
Max Temperature 50 °F 63 °F 86 °F (2012)
Min Temperature 35 °F 40 °F 24 °F (1923)
Degree Days  
Heating Degree Days 22 14  
Month to date heating degree days 14  
Since 1 July heating degree days 4180  
Cooling Degree Days 0 0  
Month to date cooling degree days 0  
Year to date cooling degree days 3  
Moisture  
Dew Point 29 °F    
Average Humidity 60    
Maximum Humidity 75    
Minimum Humidity 40    
Precipitation  
Precipitation 0.00 in 0.14 in 2.54 in (1917)
Month to date precipitation 0.14  
Year to date precipitation 10.65  
Snow  
Snow 0.00 in 0.00 in 0.10 in (1962)
Month to date snowfall 0.0  
Since 1 July snowfall 11.7  
Snow Depth -    
Sea Level Pressure  
Sea Level Pressure 30.10 in    
Wind  
Wind Speed 10 mph (NW)    
Max Wind Speed 16 mph    
Max Gust Speed 25 mph    
Visibility 10 miles    
Events      
T = Trace of Precipitation, MM = Missing Value Source: NWS Daily Summary

Daily Weather History Graph

Daily Weather History Graph

Search for Another Location

Airport or City:

Trip Planner

Search our weather history database for the weather conditions in past years. The results will help you decide how hot, cold, wet, or windy it might be!

Date:

Astronomy

Apr. 01, 2013 Rise Set
Actual Time 6:37 AM CDT 7:16 PM CDT
Civil Twilight 6:10 AM CDT 7:43 PM CDT
Nautical Twilight 5:38 AM CDT 8:15 PM CDT
Astronomical Twilight 5:06 AM CDT 8:47 PM CDT
Moon 12:21 AM CDT 10:26 AM CDT
Length of Visible Light 13h 33m
Length of Day
12h 39m
Waning Gibbous, 67% of the Moon is Illuminated
Apr 1
Waning Gibbous
Apr 2
Last Quarter
Apr 10
New
Apr 18
First Quarter
Apr 25
Full

Hourly Weather History & Observations

Time (CDT) Temp. Windchill Dew Point Humidity Pressure Visibility Wind Dir Wind Speed Gust Speed Precip Events Conditions
12:15 AM 50.0 °F - 37.4 °F 62% 29.91 in 10.0 mi NNW 10.4 mph 17.3 mph N/A   Scattered Clouds
12:35 AM 48.2 °F - 37.4 °F 66% 29.92 in 10.0 mi NNW 10.4 mph - N/A   Scattered Clouds
12:55 AM 46.4 °F 42.4 °F 35.6 °F 66% 29.92 in 10.0 mi NNW 8.1 mph - N/A   Clear
1:15 AM 46.4 °F 41.9 °F 35.6 °F 66% 29.93 in 10.0 mi NNW 9.2 mph - N/A   Clear
1:35 AM 44.6 °F 38.8 °F 35.6 °F 71% 29.94 in 10.0 mi NNW 11.5 mph - N/A   Clear
1:55 AM 44.6 °F 38.4 °F 33.8 °F 66% 29.94 in 10.0 mi NNW 12.7 mph - N/A   Clear
2:15 AM 44.6 °F 39.2 °F 33.8 °F 66% 29.95 in 10.0 mi NNW 10.4 mph - N/A   Clear
2:35 AM 42.8 °F 36.6 °F 33.8 °F 70% 29.95 in 10.0 mi NNW 11.5 mph 16.1 mph N/A   Clear
2:55 AM 42.8 °F 38.0 °F 33.8 °F 70% 29.96 in 10.0 mi NNW 8.1 mph - N/A   Scattered Clouds
3:15 AM 42.8 °F 36.6 °F 33.8 °F 70% 29.96 in 10.0 mi NNW 11.5 mph - N/A   Scattered Clouds
3:35 AM 42.8 °F 35.8 °F 33.8 °F 70% 29.97 in 10.0 mi NNW 13.8 mph 17.3 mph N/A   Scattered Clouds
3:55 AM 42.8 °F 35.1 °F 33.8 °F 70% 29.99 in 10.0 mi NNW 16.1 mph 23.0 mph N/A   Clear
4:15 AM 42.8 °F 35.8 °F 33.8 °F 70% 30.00 in 10.0 mi NNW 13.8 mph 19.6 mph N/A   Scattered Clouds
4:35 AM 42.8 °F 37.0 °F 33.8 °F 70% 30.01 in 10.0 mi North 10.4 mph - N/A   Mostly Cloudy
4:55 AM 41.0 °F 35.2 °F 32.0 °F 70% 30.02 in 10.0 mi North 9.2 mph - N/A   Mostly Cloudy
5:15 AM 41.0 °F 33.9 °F 32.0 °F 70% 30.02 in 10.0 mi North 12.7 mph 18.4 mph N/A   Mostly Cloudy
5:35 AM 39.2 °F 30.5 °F 30.2 °F 70% 30.03 in 10.0 mi NNW 16.1 mph 25.3 mph N/A   Overcast
5:55 AM 37.4 °F 31.4 °F 30.2 °F 75% 30.04 in 10.0 mi North 8.1 mph 12.7 mph N/A   Overcast
6:15 AM 37.4 °F 32.8 °F 30.2 °F 75% 30.04 in 10.0 mi North 5.8 mph - N/A   Mostly Cloudy
6:35 AM 37.4 °F 33.8 °F 30.2 °F 75% 30.06 in 10.0 mi NNW 4.6 mph - N/A   Overcast
6:55 AM 37.4 °F 32.1 °F 30.2 °F 75% 30.07 in 10.0 mi NNW 6.9 mph - N/A   Overcast
7:15 AM 39.2 °F 33.0 °F 30.2 °F 70% 30.09 in 10.0 mi NNW 9.2 mph - N/A   Overcast
7:35 AM 39.2 °F 33.0 °F 28.4 °F 65% 30.10 in 10.0 mi NW 9.2 mph - N/A   Overcast
7:55 AM 39.2 °F 34.2 °F 28.4 °F 65% 30.10 in 10.0 mi NW 6.9 mph - N/A   Overcast
8:15 AM 39.2 °F 33.0 °F 28.4 °F 65% 30.11 in 10.0 mi NW 9.2 mph - N/A   Overcast
8:35 AM 39.2 °F 31.6 °F 28.4 °F 65% 30.11 in 10.0 mi NW 12.7 mph - N/A   Mostly Cloudy
8:55 AM 39.2 °F 31.6 °F 28.4 °F 65% 30.12 in 10.0 mi NW 12.7 mph - N/A   Overcast
9:15 AM 39.2 °F 31.2 °F 26.6 °F 61% 30.12 in 10.0 mi NNW 13.8 mph - N/A   Overcast
9:35 AM 42.8 °F 36.2 °F 28.4 °F 57% 30.13 in 10.0 mi NNW 12.7 mph 19.6 mph N/A   Scattered Clouds
9:55 AM 42.8 °F 35.8 °F 28.4 °F 57% 30.13 in 10.0 mi NNW 13.8 mph 23.0 mph N/A   Clear
10:15 AM 42.8 °F 36.2 °F 26.6 °F 53% 30.14 in 10.0 mi NNW 12.7 mph - N/A   Clear
10:35 AM 42.8 °F 36.6 °F 26.6 °F 53% 30.15 in 10.0 mi NNW 11.5 mph - N/A   Scattered Clouds
11:15 AM 44.6 °F 38.1 °F 26.6 °F 49% 30.16 in 10.0 mi NW 13.8 mph 20.7 mph N/A   Scattered Clouds
11:35 AM 44.6 °F 38.1 °F 26.6 °F 49% 30.16 in 10.0 mi WNW 13.8 mph - N/A   Scattered Clouds
11:55 AM 44.6 °F 38.4 °F 26.6 °F 49% 30.16 in 10.0 mi NNW 12.7 mph 16.1 mph N/A   Scattered Clouds
12:15 PM 46.4 °F 40.4 °F 24.8 °F 43% 30.15 in 10.0 mi NNW 13.8 mph 20.7 mph N/A   Clear
12:35 PM 46.4 °F 40.4 °F 24.8 °F 43% 30.15 in 10.0 mi North 13.8 mph 17.3 mph N/A   Clear
12:55 PM 46.4 °F 40.7 °F 26.6 °F 46% 30.15 in 10.0 mi NNW 12.7 mph 16.1 mph N/A   Scattered Clouds
1:15 PM 46.4 °F 42.4 °F 26.6 °F 46% 30.15 in 10.0 mi NW 8.1 mph 17.3 mph N/A   Scattered Clouds
1:35 PM 48.2 °F - 26.6 °F 43% 30.15 in 10.0 mi WNW 12.7 mph 23.0 mph N/A   Scattered Clouds
1:55 PM 46.4 °F 40.7 °F 24.8 °F 43% 30.15 in 10.0 mi WNW 12.7 mph 20.7 mph N/A   Scattered Clouds
2:15 PM 48.2 °F - 26.6 °F 43% 30.15 in 10.0 mi NNW 11.5 mph 19.6 mph N/A   Scattered Clouds
2:35 PM 48.2 °F - 24.8 °F 40% 30.15 in 10.0 mi NNW 11.5 mph 21.9 mph N/A   Scattered Clouds
2:55 PM 48.2 °F - 26.6 °F 43% 30.15 in 10.0 mi NW 12.7 mph 19.6 mph N/A   Scattered Clouds
3:15 PM 46.4 °F 40.7 °F 26.6 °F 46% 30.15 in 10.0 mi NW 12.7 mph 20.7 mph N/A   Scattered Clouds
3:35 PM 48.2 °F - 26.6 °F 43% 30.15 in 10.0 mi NNW 10.4 mph - N/A   Scattered Clouds
3:55 PM 50.0 °F - 26.6 °F 40% 30.15 in 10.0 mi NNW 11.5 mph 17.3 mph N/A   Mostly Cloudy
4:15 PM 48.2 °F - 26.6 °F 43% 30.15 in 10.0 mi NW 13.8 mph 18.4 mph N/A   Scattered Clouds
4:35 PM 48.2 °F - 26.6 °F 43% 30.15 in 10.0 mi NNW 10.4 mph 18.4 mph N/A   Scattered Clouds
4:55 PM 48.2 °F - 26.6 °F 43% 30.15 in 10.0 mi NNW 11.5 mph 20.7 mph N/A   Mostly Cloudy
5:15 PM 48.2 °F - 24.8 °F 40% 30.15 in 10.0 mi NW 13.8 mph 19.6 mph N/A   Scattered Clouds
5:55 PM 46.4 °F 41.1 °F 26.6 °F 46% 30.16 in 10.0 mi NW 11.5 mph - N/A   Clear
6:15 PM - - - N/A% 30.16 in 10.0 mi NW 10.4 mph - N/A   Clear
6:35 PM 44.6 °F - 26.6 °F 49% 30.16 in 10.0 mi North - - N/A   Scattered Clouds
6:55 PM 44.6 °F 40.7 °F 28.4 °F 53% 30.16 in 10.0 mi NW 6.9 mph - N/A   Scattered Clouds
7:15 PM 42.8 °F 38.6 °F 28.4 °F 57% 30.16 in 10.0 mi NW 6.9 mph - N/A   Mostly Cloudy
7:35 PM 42.8 °F 39.3 °F 28.4 °F 57% 30.16 in 10.0 mi NW 5.8 mph - N/A   Mostly Cloudy
7:55 PM 41.0 °F 37.1 °F 30.2 °F 65% 30.16 in 10.0 mi WNW 5.8 mph - N/A   Mostly Cloudy
8:15 PM 39.2 °F 35.9 °F 28.4 °F 65% 30.17 in 10.0 mi West 4.6 mph - N/A   Scattered Clouds
8:35 PM 39.2 °F 35.0 °F 28.4 °F 65% 30.18 in 10.0 mi WNW 5.8 mph - N/A   Scattered Clouds
8:55 PM 37.4 °F 32.8 °F 30.2 °F 75% 30.18 in 10.0 mi WNW 5.8 mph - N/A   Scattered Clouds
9:15 PM 39.2 °F 35.0 °F 28.4 °F 65% 30.19 in 10.0 mi West 5.8 mph - N/A   Scattered Clouds
9:35 PM 39.2 °F 35.0 °F 26.6 °F 61% 30.19 in 10.0 mi West 5.8 mph - N/A   Clear
9:55 PM 35.6 °F 31.7 °F 28.4 °F 75% 30.19 in 10.0 mi NW 4.6 mph - N/A   Clear
10:15 PM 35.6 °F 30.7 °F 28.4 °F 75% 30.19 in 10.0 mi NNW 5.8 mph - N/A   Clear
10:35 PM 35.6 °F 30.7 °F 26.6 °F 70% 30.19 in 10.0 mi NNW 5.8 mph - N/A   Clear
10:55 PM 35.6 °F 31.7 °F 26.6 °F 70% 30.19 in 10.0 mi NW 4.6 mph - N/A   Clear
11:15 PM 35.6 °F 31.7 °F 26.6 °F 70% 30.19 in 10.0 mi NNW 4.6 mph - N/A   Clear
11:35 PM 35.6 °F 30.7 °F 24.8 °F 65% 30.19 in 10.0 mi NNW 5.8 mph - N/A   Clear
11:55 PM 35.6 °F 31.7 °F 24.8 °F 65% 30.20 in 10.0 mi NNW 4.6 mph - N/A   Clear